| time (UTC) | temp C | wind direction | speed KPH | gust KPH | rain 1hr cm | rain 24hr cm | rain mn cm | humidity % | barometer mb |
| 20260506100122 | 0 | 0 | 25.7 | 38.6 | 0.00 | 0.00 | 0.00 | 100 | 938.5 |
| 20260506095721 | 0 | 0 | 29.0 | 45.1 | 0.00 | 0.00 | 0.00 | 100 | 938.4 |
| 20260506095320 | 0 | 0 | 14.5 | 27.4 | 0.00 | 0.00 | 0.00 | 100 | 938.6 |
| 20260506094920 | 0 | 0 | 8.0 | 12.9 | 0.00 | 0.00 | 0.00 | 100 | 938.6 |
| 20260506094520 | 0 | 0 | 17.7 | 30.6 | 0.00 | 0.00 | 0.00 | 100 | 938.5 |
| 20260506094118 | 0 | 0 | 24.1 | 43.5 | 0.00 | 0.00 | 0.00 | 100 | 938.5 |
| 20260506093718 | 0 | 0 | 29.0 | 45.1 | 0.00 | 0.00 | 0.00 | 100 | 938.6 |
| 20260506093318 | 0 | 0 | 24.1 | 35.4 | 0.00 | 0.00 | 0.00 | 100 | 938.4 |
| 20260506092918 | 0 | 0 | 19.3 | 35.4 | 0.00 | 0.00 | 0.00 | 100 | 938.5 |
| 20260506092518 | 0 | 0 | 12.9 | 53.1 | 0.00 | 0.00 | 0.00 | 100 | 938.5 |
| 20260506092116 | 0 | 0 | 12.9 | 24.1 | 0.00 | 0.00 | 0.00 | 100 | 938.5 |
| 20260506091716 | 0 | 0 | 8.0 | 12.9 | 0.00 | 0.00 | 0.00 | 100 | 938.6 |
| 20260506091315 | 0 | 0 | 14.5 | 22.5 | 0.00 | 0.00 | 0.00 | 100 | 938.5 |
| 20260506090915 | 0 | 0 | 11.3 | 20.9 | 0.00 | 0.00 | 0.00 | 100 | 938.5 |
| 20260506090515 | 0 | 0 | 8.0 | 16.1 | 0.00 | 0.00 | 0.00 | 100 | 938.5 |
| 20260506090113 | 0 | 0 | 12.9 | 37.0 | 0.00 | 0.00 | 0.00 | 100 | 938.5 |
| 20260506085713 | 0 | 0 | 14.5 | 22.5 | 0.00 | 0.00 | 0.00 | 100 | 938.5 |
| 20260506085313 | 0 | 0 | 14.5 | 24.1 | 0.00 | 0.00 | 0.00 | 100 | 938.5 |
| 20260506084913 | 0 | 0 | 12.9 | 19.3 | 0.00 | 0.00 | 0.00 | 100 | 938.5 |
| 20260506084513 | 0 | 0 | 11.3 | 22.5 | 0.00 | 0.00 | 0.00 | 100 | 938.5 |
| 20260506084111 | 0 | 0 | 9.7 | 14.5 | 0.00 | 0.00 | 0.00 | 100 | 938.5 |
| 20260506083711 | 0 | 0 | 8.0 | 14.5 | 0.00 | 0.00 | 0.00 | 100 | 938.5 |
| 20260506083311 | 0 | 0 | 11.3 | 16.1 | 0.00 | 0.00 | 0.00 | 100 | 938.4 |
| 20260506082910 | 0 | 0 | 9.7 | 14.5 | 0.00 | 0.00 | 0.00 | 100 | 938.5 |
| 20260506082510 | 0 | 0 | 12.9 | 19.3 | 0.00 | 0.00 | 0.00 | 100 | 938.4 |
| 20260506082108 | 0 | 0 | 8.0 | 16.1 | 0.00 | 0.00 | 0.00 | 100 | 938.3 |
| 20260506081708 | 0 | 0 | 11.3 | 20.9 | 0.00 | 0.00 | 0.00 | 100 | 938.3 |
| 20260506081308 | 0 | 0 | 14.5 | 20.9 | 0.00 | 0.00 | 0.00 | 100 | 938.2 |
| 20260506080908 | 0 | 0 | 14.5 | 27.4 | 0.00 | 0.00 | 0.00 | 100 | 938.1 |
| 20260506080508 | 0 | 0 | 12.9 | 17.7 | 0.00 | 0.00 | 0.00 | 100 | 938.0 |
| 20260506080106 | 0 | 0 | 14.5 | 27.4 | 0.00 | 0.00 | 0.00 | 100 | 937.8 |
| 20260506073252 | 0 | 0 | 11.3 | 19.3 | 0.00 | 0.00 | 0.00 | 100 | 937.8 |
| 20260506072852 | 0 | 0 | 14.5 | 24.1 | 0.00 | 0.00 | 0.00 | 100 | 937.9 |
| 20260506072452 | 0 | 0 | 11.3 | 19.3 | 0.00 | 0.00 | 0.00 | 100 | 937.9 |
| 20260506072050 | 0 | 0 | 12.9 | 19.3 | 0.00 | 0.00 | 0.00 | 100 | 937.9 |
| 20260506071650 | 0 | 0 | 12.9 | 16.1 | 0.00 | 0.00 | 0.00 | 100 | 937.8 |
| 20260506071249 | 0 | 0 | 12.9 | 22.5 | 0.00 | 0.00 | 0.00 | 100 | 937.9 |
| 20260506070849 | 0 | 0 | 14.5 | 22.5 | 0.00 | 0.00 | 0.00 | 100 | 937.8 |
| 20260506070449 | 0 | 0 | 11.3 | 14.5 | 0.00 | 0.00 | 0.00 | 100 | 937.9 |
| 20260506062444 | 0 | 0 | 12.9 | 30.6 | 0.00 | 0.00 | 0.00 | 100 | 937.9 |
| 20260506062042 | 0 | 0 | 12.9 | 16.1 | 0.00 | 0.00 | 0.00 | 100 | 938.0 |
| 20260506061643 | 0 | 0 | 12.9 | 19.3 | 0.00 | 0.00 | 0.00 | 100 | 938.0 |
| 20260506061243 | 0 | 0 | 9.7 | 16.1 | 0.00 | 0.00 | 0.00 | 100 | 938.0 |
| 20260506060842 | 0 | 0 | 12.9 | 24.1 | 0.00 | 0.00 | 0.00 | 100 | 937.8 |
| 20260506060442 | 0 | 0 | 11.3 | 17.7 | 0.00 | 0.00 | 0.00 | 100 | 937.9 |
| 20260506051128 | 0 | 0 | 14.5 | 25.7 | 0.00 | 0.00 | 0.00 | 100 | 938.0 |
| 20260506050728 | 0 | 0 | 12.9 | 20.9 | 0.00 | 0.00 | 0.00 | 100 | 938.1 |
| 20260506050328 | 0 | 0 | 12.9 | 20.9 | 0.00 | 0.00 | 0.00 | 100 | 938.1 |
| 20260505171302 | 0 | 0 | 6.4 | 14.5 | 0.00 | 0.00 | 0.00 | 100 | 939.4 |
| 20260505170327 | 0 | 0 | 9.7 | 16.1 | 0.00 | 0.00 | 0.00 | 100 | 939.3 |
| 20260505165927 | 0 | 0 | 9.7 | 12.9 | 0.00 | 0.00 | 0.00 | 100 | 939.3 |
| 20260505165526 | 0 | 0 | 9.7 | 17.7 | 0.00 | 0.00 | 0.00 | 100 | 939.3 |
| 20260505165126 | 0 | 0 | 9.7 | 16.1 | 0.00 | 0.00 | 0.00 | 100 | 939.3 |
| 20260505164724 | 0 | 0 | 9.7 | 12.9 | 0.00 | 0.00 | 0.00 | 100 | 939.3 |
| 20260505164324 | 0 | 0 | 11.3 | 14.5 | 0.00 | 0.00 | 0.00 | 100 | 939.2 |
| 20260505163924 | 0 | 0 | 8.0 | 12.9 | 0.00 | 0.00 | 0.00 | 100 | 939.4 |
| 20260505163524 | 0 | 0 | 8.0 | 12.9 | 0.00 | 0.00 | 0.00 | 100 | 939.4 |
| 20260505163124 | 0 | 0 | 11.3 | 16.1 | 0.00 | 0.00 | 0.00 | 100 | 939.3 |
| 20260505162722 | 0 | 0 | 9.7 | 14.5 | 0.00 | 0.00 | 0.00 | 100 | 939.3 |
| 20260505162322 | 0 | 0 | 11.3 | 17.7 | 0.00 | 0.00 | 0.00 | 100 | 939.3 |
| 20260505161922 | 0 | 0 | 9.7 | 11.3 | 0.00 | 0.00 | 0.00 | 100 | 939.4 |
| 20260505161514 | 0 | 0 | 9.7 | 14.5 | 0.00 | 0.00 | 0.00 | 100 | 939.4 |
| 20260505161112 | 0 | 0 | 11.3 | 16.1 | 0.00 | 0.00 | 0.00 | 100 | 939.4 |
| 20260505160709 | 0 | 0 | 11.3 | 14.5 | 0.00 | 0.00 | 0.00 | 100 | 939.4 |
| 20260505160308 | 0 | 0 | 9.7 | 16.1 | 0.00 | 0.00 | 0.00 | 100 | 939.4 |
| 20260505153105 | 0 | 0 | 9.7 | 14.5 | 0.00 | 0.00 | 0.00 | 100 | 939.5 |
| 20260505152703 | 0 | 0 | 11.3 | 14.5 | 0.00 | 0.00 | 0.00 | 100 | 939.5 |
| 20260505152305 | 0 | 0 | 8.0 | 14.5 | 0.00 | 0.00 | 0.00 | 100 | 939.5 |
| 20260505151903 | 0 | 0 | 14.5 | 91.7 | 0.00 | 0.00 | 0.00 | 100 | 939.5 |
| 20260505151503 | 0 | 0 | 8.0 | 19.3 | 0.00 | 0.00 | 0.00 | 100 | 939.6 |
| 20260505151103 | 0 | 0 | 9.7 | 14.5 | 0.00 | 0.00 | 0.00 | 100 | 939.7 |
| 20260505150701 | 0 | 0 | 9.7 | 12.9 | 0.00 | 0.00 | 0.00 | 100 | 939.7 |
| 20260505150301 | 0 | 0 | 8.0 | 12.9 | 0.00 | 0.00 | 0.00 | 100 | 939.7 |
| 20260505140653 | 0 | 0 | 6.4 | 9.7 | 0.00 | 0.00 | 0.00 | 100 | 940.2 |
| 20260505140254 | 0 | 0 | 8.0 | 20.9 | 0.00 | 0.00 | 0.00 | 100 | 940.3 |
| 20260505130235 | 0 | 0 | 24.1 | 40.2 | 0.00 | 0.00 | 0.00 | 100 | 940.1 |
| 20260505125035 | 0 | 0 | 22.5 | 45.1 | 0.00 | 0.00 | 0.00 | 100 | 940.4 |
| 20260505124633 | 0 | 0 | 20.9 | 51.5 | 0.00 | 0.00 | 0.00 | 100 | 940.4 |
| 20260505124233 | 0 | 0 | 17.7 | 32.2 | 0.00 | 0.00 | 0.00 | 100 | 940.4 |
| 20260505123832 | 0 | 0 | 11.3 | 27.4 | 0.00 | 0.00 | 0.00 | 100 | 940.5 |
| 20260505123432 | 0 | 0 | 11.3 | 19.3 | 0.00 | 0.00 | 0.00 | 100 | 940.5 |
| 20260505123032 | 0 | 0 | 11.3 | 16.1 | 0.00 | 0.00 | 0.00 | 100 | 940.5 |
| 20260505122630 | 0 | 0 | 9.7 | 22.5 | 0.00 | 0.00 | 0.00 | 100 | 940.5 |
| 20260505122230 | 0 | 0 | 11.3 | 20.9 | 0.00 | 0.00 | 0.00 | 100 | 940.4 |
| 20260505121830 | 0 | 0 | 12.9 | 22.5 | 0.00 | 0.00 | 0.00 | 100 | 940.6 |
| 20260505121430 | 0 | 0 | 12.9 | 22.5 | 0.00 | 0.00 | 0.00 | 100 | 940.5 |
| 20260505121030 | 0 | 0 | 11.3 | 19.3 | 0.00 | 0.00 | 0.00 | 100 | 940.5 |
| 20260505120628 | 0 | 0 | 11.3 | 19.3 | 0.00 | 0.00 | 0.00 | 100 | 940.5 |
| 20260505120228 | 0 | 0 | 12.9 | 17.7 | 0.00 | 0.00 | 0.00 | 100 | 940.5 |
| 20260505115828 | 0 | 0 | 12.9 | 22.5 | 0.00 | 0.00 | 0.00 | 100 | 940.5 |
| 20260505115429 | 0 | 0 | 14.5 | 22.5 | 0.00 | 0.00 | 0.00 | 100 | 940.6 |
| 20260505115027 | 0 | 0 | 12.9 | 19.3 | 0.00 | 0.00 | 0.00 | 100 | 940.5 |
| 20260505114625 | 0 | 0 | 14.5 | 19.3 | 0.00 | 0.00 | 0.00 | 100 | 940.5 |
| 20260505114225 | 0 | 0 | 11.3 | 16.1 | 0.00 | 0.00 | 0.00 | 100 | 940.6 |
| 20260505113825 | 0 | 0 | 11.3 | 17.7 | 0.00 | 0.00 | 0.00 | 100 | 820.2 |
| 20260505113417 | 0 | 0 | 12.9 | 17.7 | 0.00 | 0.00 | 0.00 | 100 | 940.6 |
| 20260505113016 | 0 | 0 | 11.3 | 16.1 | 0.00 | 0.00 | 0.00 | 100 | 940.7 |
| 20260505112613 | 0 | 0 | 11.3 | 20.9 | 0.00 | 0.00 | 0.00 | 100 | 940.7 |
| 20260505112212 | 0 | 0 | 16.1 | 20.9 | 0.00 | 0.00 | 0.00 | 100 | 940.7 |
| 20260505111811 | 0 | 0 | 11.3 | 19.3 | 0.00 | 0.00 | 0.00 | 100 | 940.8 |
| 20260505111411 | 0 | 0 | 12.9 | 19.3 | 0.00 | 0.00 | 0.00 | 100 | 940.8 |
| 20260505111011 | 0 | 0 | 11.3 | 19.3 | 0.00 | 0.00 | 0.00 | 100 | 940.9 |
| 20260505110609 | 0 | 0 | 12.9 | 17.7 | 0.00 | 0.00 | 0.00 | 100 | 940.9 |
| 20260505110209 | 0 | 0 | 9.7 | 12.9 | 0.00 | 0.00 | 0.00 | 100 | 941.0 |
| 20260505102204 | 0 | 0 | 9.7 | 16.1 | 0.00 | 0.00 | 0.00 | 100 | 941.3 |
| 20260505101804 | 0 | 0 | 11.3 | 16.1 | 0.00 | 0.00 | 0.00 | 100 | 941.4 |
| 20260505101404 | 0 | 0 | 8.0 | 35.4 | 0.00 | 0.00 | 0.00 | 100 | 941.5 |
| 20260505101004 | 0 | 0 | 11.3 | 17.7 | 0.00 | 0.00 | 0.00 | 100 | 941.5 |
| 20260505100602 | 0 | 0 | 9.7 | 17.7 | 0.00 | 0.00 | 0.00 | 100 | 941.5 |